Theta_e
305 306 306 305 306 306 306 306 306 306 307 307 306 306 306 306 306 306 306 306 306 307 307 306 307 308 308 309 308 308 310 308 306 307 309 307 301 307 313 313 313 311 312 314 315 315 314 313 314 314 317 323 323 325 324 323 325 325 333 335 334 336 336 340 340 333 334 332 326 326 324 322 323 322 320 319 322 323 326 336 337 340 339 336 333 330 334 336
306 306 306 306 306 306 306 306 306 306 306 306 306 306 306 306 306 306 306 306 307 307 308 307 307 308 308 308 309 309 309 306 307 309 310 308 308 313 314 313 311 311 313 315 317 316 316 315 314 313 319 327 325 323 324 324 323 327 336 334 329 333 334 335 336 329 327 328 327 327 325 324 325 322 320 319 320 321 326 334 339 351 344 334 335 333 336 336
306 306 306 306 306 306 306 306 306 306 306 306 306 306 306 306 306 306 307 307 307 307 308 308 308 308 308 308 309 308 307 307 311 313 313 315 315 315 314 313 312 312 313 314 316 316 317 316 312 313 321 329 329 324 323 326 323 327 335 332 328 331 331 329 329 326 325 327 328 329 327 326 327 322 320 321 321 321 327 335 341 353 348 338 337 334 335 336
306 307 306 306 307 306 306 306 306 306 306 306 306 306 306 306 306 306 307 307 307 307 307 308 308 308 308 308 306 305 307 309 314 317 316 317 316 315 313 312 312 313 315 315 315 315 317 315 312 315 320 327 332 327 323 324 323 325 327 330 331 329 328 326 326 325 324 328 328 329 329 327 327 322 322 324 324 323 325 331 338 348 346 338 337 335 334 334
306 306 306 307 307 306 307 306 306 306 306 306 306 306 306 306 306 306 306 306 306 307 307 307 308 308 308 307 304 305 307 308 314 316 314 316 315 314 312 312 313 313 315 315 316 315 316 314 313 319 323 327 332 327 324 323 321 325 323 326 330 327 326 325 325 324 323 328 327 328 330 328 327 323 324 326 327 330 329 327 328 338 341 337 337 335 334 334
305 305 305 306 306 306 306 306 306 306 306 306 306 306 306 306 306 306 306 306 306 306 306 307 307 307 308 306 303 306 308 307 311 312 311 314 313 313 312 312 313 313 315 315 315 315 315 315 316 323 324 327 330 326 325 323 319 323 323 324 327 325 324 323 323 323 322 325 323 325 327 328 330 327 326 325 327 331 332 329 324 334 338 335 335 335 335 336
305 304 305 305 305 306 306 305 305 305 305 306 306 306 306 306 306 306 306 306 306 306 306 306 307 307 307 305 304 308 310 309 309 307 309 311 310 312 312 312 312 313 314 314 315 317 317 318 319 322 321 323 325 324 324 321 318 319 322 324 323 322 322 322 321 322 321 322 322 323 325 328 330 329 328 325 330 330 327 328 325 332 336 334 336 336 336 336
304 304 304 304 305 305 305 305 304 304 304 304 305 305 305 306 306 306 306 306 306 305 306 306 306 307 306 305 306 308 309 310 307 306 307 308 310 311 311 312 312 313 313 312 315 318 319 320 321 320 321 322 321 323 323 321 321 320 320 324 323 322 321 321 322 323 322 322 326 326 327 332 331 328 328 328 332 330 327 330 329 333 336 336 337 336 336 336
303 303 303 304 304 304 305 305 305 304 303 303 303 304 304 305 305 306 306 306 306 305 305 305 306 307 305 306 308 308 308 309 307 307 307 307 309 311 310 312 311 311 312 312 313 316 318 320 321 320 322 325 322 323 324 321 322 321 320 323 323 323 321 321 322 324 322 322 326 326 326 333 333 327 328 332 332 328 329 334 334 336 338 337 337 336 335 336
302 302 302 302 303 304 304 304 305 304 304 303 303 302 302 302 303 304 306 307 306 305 305 305 306 306 305 305 308 309 307 308 307 306 307 307 307 309 311 311 311 311 311 311 312 313 316 317 319 320 321 323 320 321 322 321 320 320 320 321 322 322 321 320 320 322 322 322 324 324 324 329 329 325 329 335 333 326 326 331 331 334 338 336 336 336 335 335
302 301 300 300 300 301 303 304 304 304 304 303 303 302 301 301 302 303 305 307 307 306 305 305 306 306 305 306 307 308 304 304 305 303 306 307 306 307 309 310 310 309 309 311 311 312 313 315 317 320 320 320 320 321 320 319 320 321 320 320 323 322 320 321 321 322 323 323 325 324 324 326 325 325 329 333 331 328 326 327 329 332 335 335 335 335 334 334
303 302 301 299 299 299 300 301 302 303 303 302 302 301 301 300 301 302 304 307 306 306 306 305 307 306 306 306 306 305 302 303 304 303 305 305 306 306 306 309 309 309 308 309 311 311 312 315 317 321 321 320 323 322 318 318 320 321 321 321 324 322 319 321 321 321 321 322 325 323 324 324 323 324 329 331 330 331 329 328 328 329 331 333 334 334 333 333
303 303 303 301 299 299 299 299 300 301 301 301 301 300 300 300 301 301 304 307 306 306 306 306 307 306 306 307 306 304 304 305 305 304 305 305 307 307 305 308 309 308 308 308 310 311 312 314 316 320 321 322 325 321 317 319 320 322 322 321 322 320 321 321 320 322 321 322 324 322 323 323 321 323 326 330 331 330 329 329 328 327 328 331 333 333 332 332
304 304 303 303 301 300 300 299 299 300 300 301 301 300 300 300 301 301 304 308 307 306 306 306 306 306 306 306 305 304 305 306 306 305 306 307 308 308 306 307 308 307 307 308 309 310 311 312 315 319 320 321 323 321 320 322 322 324 323 324 322 318 323 323 319 321 320 322 323 321 324 323 322 323 323 327 329 328 327 328 328 326 325 326 330 332 332 331
304 304 304 304 303 302 302 301 300 300 300 300 300 300 300 300 302 302 304 307 307 306 306 306 305 306 306 306 304 304 305 306 307 307 307 307 307 308 308 308 308 306 307 308 309 311 311 311 315 322 323 322 321 321 324 325 326 326 322 325 325 318 323 324 318 319 318 319 321 322 324 323 322 323 323 325 328 326 326 325 325 325 324 323 325 328 330 330
302 303 304 304 304 304 303 303 302 301 301 300 300 300 300 301 303 304 305 307 306 305 306 305 306 306 306 306 304 305 306 307 308 306 306 306 306 307 308 309 308 308 308 309 310 311 311 312 316 320 322 323 322 322 323 323 326 327 322 324 326 322 323 324 320 321 319 317 319 322 324 324 325 324 321 323 325 324 325 325 324 324 324 323 322 322 324 327
300 299 301 303 304 304 304 304 303 302 302 301 300 300 301 303 304 304 305 305 305 305 305 306 306 305 305 305 305 305 305 306 306 304 305 308 307 307 308 309 309 309 309 309 310 310 312 315 317 318 321 322 323 322 321 320 321 324 322 323 325 324 324 324 323 322 319 318 318 320 321 321 325 325 320 320 321 320 320 321 323 323 324 324 324 323 321 322
300 299 299 300 303 303 303 303 304 303 302 302 301 300 302 303 304 305 305 303 304 305 306 306 306 306 306 306 304 304 305 305 304 304 306 309 308 308 309 309 310 310 311 312 312 312 313 317 318 318 320 320 322 321 320 320 320 319 320 321 323 323 323 323 322 320 317 317 317 319 319 319 320 321 320 319 319 319 318 318 321 322 324 326 326 325 323 321
300 301 300 299 301 303 303 303 304 303 303 303 301 301 303 303 304 306 304 303 306 306 305 306 306 305 306 305 303 304 304 304 304 304 306 308 308 308 308 309 311 311 312 314 313 313 314 317 319 319 318 318 321 321 320 320 319 317 317 319 321 321 322 322 320 318 315 314 316 317 317 317 318 319 319 319 318 319 319 318 319 320 322 324 325 326 325 324
301 301 301 299 300 302 303 302 303 303 303 303 302 302 305 304 305 306 304 304 306 305 304 306 306 305 305 305 304 304 304 305 305 305 304 305 306 307 307 310 313 312 313 314 314 315 315 316 317 317 318 318 319 321 320 320 319 318 318 319 320 319 320 320 318 318 315 315 319 318 316 316 317 318 318 318 318 319 320 319 320 321 321 321 322 324 326 326
301 301 301 300 299 301 303 302 302 303 303 303 302 304 306 304 304 305 304 305 304 302 304 305 303 304 304 304 304 304 304 306 305 304 303 303 305 306 307 311 313 313 313 313 314 315 315 315 315 315 317 318 317 317 317 317 318 320 321 320 320 319 319 319 317 317 315 317 323 324 320 318 319 320 321 319 319 319 320 320 321 322 322 320 320 324 327 327
301 301 302 301 299 300 302 302 302 303 303 302 303 304 304 303 304 304 304 305 304 302 304 303 303 305 304 303 304 304 305 308 306 306 304 304 307 306 307 312 313 312 313 311 311 312 313 314 315 315 316 315 315 315 313 313 314 317 319 319 320 320 319 320 318 316 315 316 323 325 320 318 319 320 322 322 320 321 322 322 320 321 321 320 319 322 325 327
301 302 302 301 299 300 302 302 302 303 303 303 303 304 303 304 304 303 304 305 305 304 304 304 305 306 306 305 304 304 306 307 306 307 306 306 310 308 309 312 311 312 312 311 311 309 311 313 313 315 315 313 314 314 313 313 313 314 315 317 319 319 319 321 320 316 315 316 319 321 318 317 317 318 320 321 321 321 322 322 321 320 321 320 319 320 322 324
301 301 302 301 299 300 302 302 302 303 303 303 304 303 304 304 304 304 304 304 305 306 305 303 304 305 305 304 303 304 306 305 305 307 305 307 310 308 309 310 310 312 311 310 311 309 311 312 310 311 312 312 314 315 314 313 314 314 314 315 317 318 318 320 319 317 316 316 317 318 319 321 321 319 318 319 320 320 319 319 320 319 319 320 320 320 321 322
301 301 301 300 300 300 301 302 302 302 302 303 302 302 304 304 304 304 305 305 306 305 303 302 304 304 303 303 304 304 305 304 305 305 304 306 308 307 309 309 309 311 310 310 310 310 312 312 310 310 310 311 313 316 315 314 315 315 316 316 316 317 318 319 319 319 318 319 319 317 321 327 327 322 320 319 319 318 317 318 318 317 316 317 317 317 317 319
301 301 300 301 301 300 301 302 302 302 302 302 301 302 303 303 304 303 303 307 306 303 302 304 304 304 303 304 305 304 306 307 305 304 304 306 306 305 308 310 309 309 310 311 311 310 311 311 310 310 311 311 313 315 314 315 314 314 319 319 316 317 318 320 321 320 320 321 320 317 320 326 324 320 322 323 321 319 318 318 317 316 315 315 315 314 314 315
302 301 299 300 302 301 302 303 302 302 303 303 302 303 303 303 304 301 302 306 304 300 303 305 304 303 303 304 304 305 308 308 306 305 305 305 305 304 306 309 308 309 310 310 310 310 309 311 312 311 312 312 313 314 313 313 313 316 321 319 316 318 319 321 322 321 321 322 321 318 318 320 319 318 321 322 322 321 320 320 319 317 317 316 315 315 314 314
301 302 300 299 301 302 302 302 302 302 303 302 302 302 303 303 302 301 304 305 300 299 302 303 303 303 304 304 305 307 308 307 306 306 305 304 305 306 307 308 307 308 310 310 310 309 308 311 312 310 311 312 313 314 312 312 313 316 318 316 315 319 320 321 322 322 322 321 321 320 318 319 318 318 319 318 319 320 319 320 320 318 318 317 316 315 315 315
301 302 300 299 300 301 302 302 301 301 302 301 301 302 303 302 301 303 306 302 298 300 302 303 304 304 305 306 307 308 308 307 307 306 305 306 305 306 308 307 307 308 308 309 310 309 309 311 312 310 310 313 315 315 313 312 314 315 314 314 318 321 321 321 321 321 321 320 320 320 319 319 318 318 317 317 317 319 319 319 318 317 318 318 316 316 315 315
300 301 300 299 299 300 301 301 300 301 301 301 302 303 302 302 303 306 304 298 298 301 303 303 304 304 305 306 308 308 307 307 307 307 307 308 307 308 307 306 307 308 307 307 309 309 308 309 311 311 310 312 314 314 314 313 313 314 313 315 319 322 322 322 321 320 320 319 318 319 321 320 320 319 316 317 319 319 318 317 317 316 316 316 315 314 314 314
301 300 299 299 299 300 301 301 300 300 302 302 302 301 301 301 304 306 302 296 298 302 303 304 305 305 304 304 306 306 306 308 308 307 307 307 309 311 309 306 307 309 309 308 308 309 308 306 308 310 309 311 312 312 313 313 312 314 316 317 318 319 320 322 322 319 318 317 316 320 323 322 320 320 317 318 319 318 315 315 315 314 314 314 313 313 312 312
301 300 299 299 299 299 300 301 301 300 302 302 300 300 303 304 303 301 300 298 299 301 302 304 305 305 304 304 304 304 305 307 306 306 306 306 308 308 307 306 306 307 307 307 307 308 309 307 308 309 309 310 310 310 312 314 314 314 316 318 317 317 317 317 318 318 317 316 315 318 321 321 320 318 316 317 316 315 315 314 314 314 313 313 313 313 312 313
301 299 299 299 299 300 301 301 301 301 302 301 301 303 305 305 303 300 301 302 300 300 302 303 305 304 304 304 304 303 305 305 304 305 305 304 306 306 305 305 306 306 306 306 306 306 308 308 308 309 310 309 308 309 310 311 312 313 314 316 316 316 315 313 313 315 315 315 315 316 317 320 320 316 314 316 314 313 314 313 313 313 313 313 312 313 313 314
301 300 299 300 300 300 301 301 301 302 301 300 304 307 305 302 301 302 303 303 301 301 302 302 304 305 303 303 304 303 305 305 303 304 305 304 306 307 306 305 306 307 307 307 307 306 305 306 307 307 308 309 308 309 309 308 310 312 312 313 313 314 315 313 313 313 313 314 316 315 315 319 322 316 314 315 315 316 315 314 314 314 314 313 313 314 314 314
301 300 300 300 300 300 300 300 301 301 300 301 302 303 303 300 299 301 303 303 302 302 301 301 304 306 304 302 303 302 302 304 304 304 305 304 305 306 305 304 305 306 307 306 306 306 305 305 307 305 305 308 310 310 309 310 311 311 311 313 313 313 313 313 313 313 313 313 315 317 317 319 318 312 311 311 313 317 317 316 315 315 316 315 315 314 314 314
301 300 300 300 300 300 300 300 301 300 300 303 303 300 300 300 300 301 302 302 302 301 301 302 304 305 304 303 303 302 301 302 303 304 305 303 304 305 304 304 304 305 307 305 304 306 306 307 308 307 306 309 310 310 310 310 311 311 312 314 312 310 311 313 313 312 313 313 315 315 315 315 312 310 312 311 312 314 314 313 313 314 316 316 315 313 313 314
301 300 299 300 300 301 300 300 301 300 301 304 304 300 299 299 300 302 302 301 301 300 301 302 302 301 302 304 304 301 301 303 302 302 304 303 303 304 305 305 303 305 308 306 305 305 305 307 307 306 308 310 308 308 309 309 311 312 312 312 311 310 311 313 312 312 313 313 314 313 312 311 310 311 314 311 310 310 309 309 309 310 312 313 313 313 312 313
301 301 300 299 300 300 300 301 300 300 303 304 302 300 298 298 299 301 302 301 301 301 301 302 302 301 301 302 303 302 302 302 301 303 304 303 302 302 305 306 304 307 308 305 306 306 303 305 307 305 306 307 307 308 308 308 310 309 309 311 311 311 311 311 311 311 311 310 312 313 312 311 311 310 311 310 309 308 307 307 308 307 309 313 316 317 315 315
301 302 302 299 299 300 300 301 299 300 305 304 302 301 298 299 302 301 301 301 300 301 301 300 301 301 301 301 301 302 302 301 301 302 302 301 301 301 304 304 303 307 307 303 306 307 303 304 307 306 305 304 306 309 306 307 310 310 311 312 312 311 311 310 310 310 311 310 312 313 311 312 313 310 309 309 308 307 308 309 310 309 311 315 319 319 319 320
299 303 303 298 298 300 300 301 301 303 304 300 299 299 297 300 304 302 301 301 301 300 300 300 300 300 301 301 300 301 301 301 301 301 301 302 302 302 304 303 302 305 306 305 305 306 304 304 305 307 305 304 305 307 305 305 308 309 310 311 311 311 310 309 309 310 311 311 312 312 311 313 314 310 307 308 308 311 313 312 311 309 309 313 317 317 319 321
299 304 302 298 299 300 300 301 301 302 302 300 299 300 299 301 303 302 302 301 300 300 299 300 300 300 301 301 300 300 300 301 301 301 302 303 302 302 302 303 304 304 305 306 305 305 305 305 304 304 304 304 304 305 304 303 304 306 309 309 309 310 308 307 308 310 310 309 310 311 310 311 310 307 307 308 309 310 311 310 308 307 307 310 314 315 318 321
300 302 299 298 300 299 301 303 299 299 303 301 299 300 300 301 301 300 300 300 299 299 300 300 300 300 301 300 300 300 300 302 302 301 301 301 301 301 300 302 305 303 304 305 304 303 304 304 303 304 304 303 302 301 301 300 302 307 309 309 309 308 307 307 307 308 307 307 307 308 309 308 308 310 310 310 309 307 307 306 306 306 306 307 309 311 315 318
302 302 299 299 299 299 303 304 300 301 303 300 296 297 298 299 300 300 299 299 299 299 301 301 299 299 300 299 300 300 300 300 301 301 302 302 301 301 301 302 303 302 302 304 303 302 303 303 303 303 301 301 302 304 303 302 305 308 307 308 310 309 307 307 307 306 306 306 305 307 308 307 308 312 313 310 308 306 306 305 305 306 306 306 307 308 311 314
300 299 299 299 297 299 304 303 301 301 301 299 299 299 297 298 300 300 299 301 300 300 301 300 298 298 299 299 300 301 300 300 301 301 300 300 302 303 302 303 302 301 301 303 303 301 302 303 303 302 300 299 302 307 306 304 306 307 304 306 308 306 305 306 306 307 307 306 305 307 308 306 305 308 308 307 306 305 305 305 305 305 306 305 305 306 309 313
299 298 300 299 296 298 300 299 300 302 300 300 300 299 298 299 300 299 299 301 301 300 300 299 298 299 300 299 300 301 301 300 301 301 300 300 303 304 303 303 302 301 301 302 304 303 302 303 304 303 302 301 301 302 302 302 303 302 301 303 303 301 302 303 304 306 305 304 305 306 306 304 303 304 304 304 304 304 304 304 304 305 305 305 305 306 308 311
300 301 301 300 298 298 297 296 299 301 300 300 300 299 299 300 301 300 299 300 300 300 300 299 299 300 300 301 301 302 301 300 300 300 300 301 302 302 302 302 302 302 302 303 304 304 304 304 304 303 302 302 300 299 300 301 301 301 301 301 301 301 302 302 304 304 304 303 303 304 303 304 303 303 303 303 303 303 303 303 304 304 304 305 305 305 306 307
300 301 299 299 300 300 299 298 299 300 299 299 300 300 299 300 300 300 300 300 300 300 300 299 300 300 300 301 301 301 302 300 300 300 301 301 302 302 302 303 302 303 304 303 303 305 305 304 304 303 302 301 300 300 300 301 301 301 301 301 301 301 302 303 303 303 303 303 303 302 303 304 303 302 302 303 302 302 302 303 303 303 304 304 304 305 305 305
297 298 296 295 298 301 300 299 299 300 299 299 299 299 300 300 300 299 300 301 301 300 300 300 300 300 300 301 301 301 301 301 301 302 301 301 301 301 302 302 302 302 304 304 303 304 304 304 303 303 302 302 301 300 301 300 301 301 301 301 301 301 301 302 302 302 302 303 303 302 303 303 303 302 302 302 302 302 302 303 303 303 304 304 304 304 305 305
295 297 296 294 296 300 299 297 298 299 300 300 299 299 300 300 299 299 300 300 300 300 299 300 300 300 300 301 301 300 300 300 301 302 301 301 300 300 301 301 302 303 304 304 304 302 302 304 304 302 302 301 301 301 302 301 301 301 300 301 301 301 301 301 301 301 301 302 302 302 302 302 302 302 302 302 302 302 303 303 303 303 304 304 304 304 305 305
296 297 297 296 298 299 298 297 298 300 300 300 299 299 299 299 298 298 299 298 298 299 299 298 298 298 299 300 300 300 300 299 300 301 301 300 300 299 300 300 302 303 302 301 302 301 300 302 303 302 302 301 300 302 303 303 302 301 300 300 299 299 300 300 300 300 301 301 301 301 302 302 302 302 302 302 302 303 303 303 303 304 304 304 305 305 305 305
295 295 295 298 300 298 298 298 298 299 300 300 298 298 298 297 296 297 299 298 297 298 297 296 297 297 298 299 299 299 298 298 299 300 300 300 299 299 299 300 300 301 300 301 303 302 301 301 302 302 302 301 300 301 302 302 302 301 300 299 299 300 301 301 301 301 302 302 302 302 302 302 302 302 302 303 303 303 304 304 303 304 304 304 305 305 305 305
294 294 293 296 299 297 296 298 298 298 298 297 296 296 296 296 295 296 298 298 297 297 296 295 296 296 297 298 298 297 297 297 298 299 299 299 299 298 298 298 299 299 299 300 302 302 302 302 301 301 302 302 301 301 301 301 301 300 299 300 301 301 302 302 301 301 301 301 302 302 302 302 302 302 302 303 304 304 303 303 303 303 303 304 304 304 304 304
Wind_Speed
15 14 14 14 15 15 15 15 15 15 15 15 15 15 15 15 15 15 15 15 15 15 15 16 16 17 18 18 19 19 21 23 22 19 14 13 13 8 7 9 13 15 15 15 14 12 10 8 9 12 8 1 4 2 3 3 2 2 3 3 4 4 5 5 5 3 2 1 4 6 1 4 2 2 1 2 5 4 4 5 3 4 6 2 3 15 30 29
15 14 14 13 14 14 14 15 15 15 15 15 15 15 16 16 16 15 16 16 16 16 16 16 16 17 18 18 20 20 22 23 20 17 15 12 7 2 5 10 13 13 13 14 13 11 7 6 9 10 6 1 1 2 3 3 3 3 4 4 6 6 6 5 5 2 1 3 6 8 5 4 5 4 2 1 0 2 5 4 5 4 5 5 9 20 28 28
15 15 14 14 14 14 14 14 15 15 15 16 16 16 16 17 16 16 16 16 16 17 17 17 17 17 18 19 19 20 22 19 13 10 6 2 3 2 9 12 14 12 12 13 12 12 8 8 9 6 3 1 1 2 3 3 3 3 4 4 7 6 5 5 6 5 1 3 6 9 5 4 5 5 4 4 3 3 5 2 1 1 2 4 7 14 22 24
16 16 15 15 15 14 14 14 15 15 16 16 16 16 16 17 17 17 16 17 17 17 17 17 17 17 18 19 19 19 18 10 4 3 0 2 0 8 13 14 14 12 12 11 11 12 11 10 8 3 1 2 3 1 3 4 3 3 5 6 6 5 6 8 8 6 2 1 4 7 4 2 4 2 4 6 5 2 5 6 7 8 9 9 7 10 17 18
17 17 16 16 16 15 15 14 14 15 16 16 16 17 17 16 17 17 17 17 17 17 17 17 18 18 18 18 18 17 10 2 2 6 6 6 8 10 14 13 11 11 11 10 10 10 8 6 4 3 1 1 2 1 3 5 2 2 5 6 6 6 6 8 7 5 1 1 4 6 5 3 4 3 3 7 7 5 5 7 10 10 12 14 12 12 13 13
18 17 17 16 16 16 16 15 15 16 16 16 16 17 16 16 17 17 17 17 17 17 17 17 18 18 18 18 16 11 3 1 2 9 14 13 10 9 12 11 9 11 10 10 10 6 3 2 3 2 1 1 3 3 3 4 1 2 4 4 6 6 6 5 4 3 2 3 5 4 3 4 4 5 3 5 6 6 6 7 9 9 14 16 15 13 13 13
18 18 17 17 16 16 16 16 16 16 17 17 17 18 17 17 17 16 17 17 17 17 17 17 17 18 17 17 13 5 2 4 5 12 18 16 11 9 10 8 8 12 14 16 14 5 0 4 3 1 0 1 2 3 4 5 2 1 3 3 4 6 6 4 3 3 3 1 6 4 3 3 4 5 3 3 6 5 5 4 5 9 13 15 14 14 14 15
18 17 17 17 17 16 16 16 16 17 17 17 17 18 18 18 17 16 17 17 17 16 16 16 17 17 16 14 8 2 2 5 4 14 18 16 12 9 10 9 10 14 16 16 13 6 3 5 4 1 1 2 1 2 4 4 3 2 3 4 3 3 4 5 5 4 3 3 5 3 4 6 6 3 2 6 9 6 4 2 3 9 11 12 13 14 13 13
17 17 17 17 16 16 17 16 17 17 18 18 18 18 18 18 18 17 16 16 17 16 15 15 16 15 13 9 3 2 5 4 1 15 18 17 14 9 11 11 13 17 16 15 14 10 5 3 3 1 0 3 2 4 4 2 2 1 1 4 4 5 5 5 4 3 3 2 3 2 5 7 5 2 3 7 9 5 1 3 6 11 11 11 13 13 13 13
18 17 17 17 17 17 17 17 17 18 18 19 19 20 19 19 18 18 17 15 16 16 15 14 14 14 11 6 3 1 4 4 4 16 17 17 16 12 11 12 15 17 15 15 14 10 5 2 2 2 3 2 3 4 2 1 2 3 3 4 4 6 5 3 4 4 4 3 4 4 6 8 5 2 4 7 6 1 4 4 3 9 11 12 11 12 13 13
19 18 18 17 18 18 18 18 18 19 19 20 20 21 21 20 18 18 18 16 15 15 14 14 13 14 10 4 2 2 5 7 13 18 16 15 16 14 13 12 14 16 15 14 13 10 6 4 4 1 1 1 3 5 2 2 4 5 3 4 5 6 5 4 4 4 3 2 5 6 6 7 3 2 5 7 6 2 3 2 3 5 8 10 11 11 10 11
19 19 19 18 18 18 19 19 19 20 20 21 22 22 22 22 20 19 18 16 14 13 13 13 12 13 9 2 4 6 12 16 17 17 15 15 16 14 13 13 12 14 14 10 12 15 11 8 7 4 1 2 3 3 3 4 5 4 2 2 6 7 6 6 3 2 2 3 3 4 4 8 5 6 7 7 6 4 4 3 5 6 6 8 9 9 8 10
18 19 19 19 18 18 19 19 20 20 21 22 22 22 23 22 21 20 17 16 14 12 12 11 12 12 6 1 6 8 14 15 14 14 14 14 15 12 9 11 11 13 13 9 13 15 12 10 7 2 2 1 2 3 3 6 3 3 2 1 4 6 6 7 2 2 2 4 4 1 5 9 8 8 7 7 6 3 5 6 6 6 6 7 7 7 8 10
19 18 18 18 18 18 19 19 19 19 20 21 22 22 22 22 22 20 16 14 13 11 10 11 12 8 2 4 9 11 12 12 11 12 12 13 14 12 7 8 10 11 11 11 13 11 9 10 7 2 1 1 3 4 4 5 2 1 1 1 2 0 5 7 4 1 3 5 3 2 6 9 8 8 7 7 7 5 6 8 8 7 6 6 7 8 9 9
20 19 18 17 18 18 18 19 18 19 19 20 21 21 22 22 21 18 13 12 12 9 9 10 8 4 1 5 9 11 11 8 8 11 11 13 13 10 9 11 10 8 9 10 10 8 8 9 5 1 2 2 1 3 4 4 3 2 0 2 2 3 4 8 6 2 3 5 3 5 7 6 7 9 7 7 7 6 7 8 9 8 8 7 7 8 9 9
22 21 19 18 18 17 18 18 18 19 18 19 20 20 22 20 16 14 10 10 9 7 8 6 4 4 1 4 7 11 10 7 11 15 14 13 10 7 10 12 9 7 8 8 7 8 7 5 1 1 1 2 3 3 3 3 4 3 1 1 2 2 2 5 6 4 4 5 3 7 7 2 4 8 7 8 8 9 9 9 10 10 9 8 7 7 8 8
24 22 20 19 18 17 17 17 17 18 18 19 19 21 21 15 11 8 4 7 8 6 5 3 3 3 2 4 7 7 8 10 15 19 16 11 7 6 8 7 5 8 8 6 5 6 4 2 0 0 2 2 2 3 2 2 3 3 2 1 2 2 2 1 5 6 2 4 5 7 9 6 6 7 6 7 9 11 10 10 11 9 8 8 6 6 7 8
25 23 21 18 18 17 17 17 17 16 17 18 19 21 17 9 7 3 5 13 10 4 2 2 4 2 2 6 7 7 11 14 17 17 14 10 7 7 7 3 3 7 6 4 4 2 2 2 1 1 3 3 2 3 2 4 4 2 1 1 2 2 3 2 4 5 4 2 5 7 9 9 8 8 8 8 8 10 10 9 9 8 7 7 6 7 7 8
24 24 22 19 17 17 18 17 16 16 16 18 19 17 10 5 4 4 8 16 7 1 2 2 1 1 4 6 7 10 15 15 13 11 10 9 8 8 7 3 2 3 2 2 2 1 0 1 3 2 1 1 1 3 4 5 4 4 3 2 2 3 4 4 5 6 5 4 6 8 9 9 8 9 10 11 8 8 9 7 6 7 6 6 6 6 7 8
23 23 23 21 17 16 17 16 15 15 15 17 20 15 6 5 4 2 8 10 1 1 3 3 2 2 5 5 9 15 15 10 5 7 11 10 8 9 6 4 4 4 2 2 2 2 2 1 1 2 4 4 4 4 4 4 2 2 2 3 3 3 4 5 6 7 3 3 7 8 9 9 9 9 11 11 9 9 10 9 7 6 6 6 6 6 7 8
22 23 23 22 18 15 16 15 14 14 13 15 16 10 3 3 4 3 6 5 3 3 4 6 5 6 8 10 13 12 7 4 4 8 11 8 6 6 4 4 4 2 1 1 2 2 2 2 3 4 6 6 5 5 3 3 4 4 3 4 4 3 5 6 7 8 3 2 6 6 5 8 8 8 9 8 7 8 10 9 7 6 6 5 6 7 7 7
22 22 23 22 17 14 14 14 13 13 11 11 10 5 2 4 4 3 3 3 6 5 4 7 4 4 9 9 9 7 3 4 7 8 10 6 5 3 1 2 4 1 3 2 2 3 3 1 2 5 7 5 5 4 3 3 4 4 3 2 4 3 3 7 6 4 2 1 5 6 6 7 8 7 8 7 6 6 7 7 6 6 6 6 6 6 7 6
23 23 24 22 16 13 13 12 11 10 10 9 7 5 4 8 6 2 1 1 5 5 3 4 3 3 6 5 7 7 3 2 4 7 8 6 4 2 1 2 3 1 3 3 1 1 1 2 3 3 3 2 4 5 4 4 3 3 3 2 4 2 0 4 6 4 4 3 4 7 6 6 7 6 7 8 7 5 5 7 6 6 6 7 7 6 6 7
23 24 25 22 15 11 11 10 9 11 11 8 6 7 7 7 6 1 1 1 3 5 2 3 3 2 4 5 7 6 2 1 1 6 7 4 2 2 1 1 2 1 2 0 2 2 2 5 3 3 2 0 3 5 3 3 3 3 4 3 3 4 2 4 6 7 6 3 2 4 6 5 5 5 7 6 5 5 5 6 7 7 7 7 7 7 6 7
23 25 25 20 14 12 10 6 8 13 13 7 6 8 8 6 5 3 1 3 3 6 4 4 4 4 6 7 5 3 1 2 2 4 5 3 2 2 2 1 1 2 3 2 1 2 4 7 4 3 4 2 3 4 2 2 2 4 4 6 6 6 6 5 6 7 6 4 2 4 4 5 4 4 6 5 5 6 5 5 8 8 8 7 8 9 8 7
22 25 25 19 15 14 8 3 9 14 9 6 8 10 7 6 5 3 2 4 3 5 6 6 4 7 10 6 4 2 3 4 7 6 4 3 2 2 2 2 1 2 2 2 1 1 2 6 5 3 2 2 3 3 1 3 1 3 4 6 7 5 4 4 4 3 2 4 4 3 1 5 5 4 6 6 6 8 8 8 8 7 8 8 8 10 10 10
20 24 25 19 15 15 6 2 11 11 3 5 11 10 7 7 5 2 3 5 4 3 5 5 3 5 8 7 6 3 2 5 8 6 3 4 4 3 2 2 2 2 1 2 1 0 2 5 7 6 5 4 1 1 2 2 2 3 5 3 3 3 2 3 2 2 3 3 6 4 0 4 6 4 6 6 6 8 8 10 9 7 8 9 9 11 12 13
18 20 24 21 13 12 8 5 9 8 4 10 12 9 9 7 4 1 5 5 3 3 1 4 4 5 6 7 6 2 2 4 4 3 5 5 4 3 3 1 1 1 2 2 1 1 0 1 3 4 4 3 1 2 2 3 0 3 5 6 3 3 2 0 2 1 2 2 5 6 2 3 7 4 4 6 6 7 7 9 10 8 9 9 10 12 12 12
17 18 24 22 9 6 8 7 9 10 10 11 9 9 10 7 2 3 6 3 2 2 2 2 6 5 5 7 6 2 2 3 2 4 6 5 3 3 1 1 3 1 2 2 2 3 1 1 1 1 0 1 4 4 2 1 1 5 5 6 3 2 3 2 2 0 2 2 5 4 1 3 7 3 2 3 4 6 7 7 9 9 10 10 10 11 12 11
15 17 22 21 9 6 8 7 10 11 10 8 7 10 10 6 3 6 5 1 1 3 2 2 5 4 6 7 5 5 5 3 3 4 4 3 4 4 1 1 3 3 3 3 1 5 4 1 2 2 2 4 4 4 4 5 4 4 5 4 3 4 3 3 2 2 1 4 6 3 5 4 5 2 4 3 3 4 5 5 7 8 9 11 10 10 10 10
14 17 19 18 13 10 8 8 12 12 8 9 9 10 7 4 4 7 3 1 1 4 4 4 4 5 7 6 4 5 5 4 5 5 5 4 5 5 3 4 4 3 4 5 3 5 5 3 1 3 3 1 0 3 3 2 1 1 3 3 3 4 3 4 3 2 1 6 5 3 6 6 6 4 2 3 4 3 4 6 7 9 10 10 10 10 9 8
13 16 17 15 11 10 9 9 13 12 9 10 10 7 4 4 5 3 1 3 2 3 3 4 4 6 8 5 4 6 4 4 5 4 4 4 4 4 4 3 3 4 5 4 4 5 5 2 2 4 3 2 3 4 3 3 2 3 2 3 2 2 3 2 2 0 3 6 2 1 3 4 8 9 7 9 10 9 10 10 10 11 12 12 12 12 10 7
11 15 16 14 12 12 11 9 10 9 9 10 8 4 6 6 3 1 2 3 1 3 3 3 5 5 6 4 5 7 4 3 6 5 4 3 4 5 4 3 3 4 2 3 4 5 4 4 5 6 4 2 2 0 2 4 3 2 2 2 2 1 0 3 4 2 3 5 4 3 3 2 6 8 7 10 11 11 12 12 13 13 14 14 13 13 12 10
9 14 15 12 11 11 10 9 9 9 11 10 5 5 7 5 0 1 3 2 2 3 3 3 5 5 5 4 3 5 4 3 6 6 5 4 5 4 4 5 5 4 1 2 2 3 3 4 4 4 2 2 1 2 3 1 3 2 2 3 2 2 2 4 4 2 3 3 4 3 1 3 5 4 3 6 7 7 8 9 10 10 11 11 11 11 12 13
8 12 14 12 11 11 10 10 9 11 12 8 6 6 6 3 3 1 2 4 2 4 5 3 3 5 5 3 3 4 3 2 6 6 4 4 3 3 4 5 5 3 2 2 2 1 2 4 4 2 3 2 3 2 1 1 2 3 1 3 0 1 1 2 3 4 4 3 3 2 2 4 6 6 8 7 7 7 7 7 6 8 9 8 8 9 10 11
7 10 14 14 14 12 11 10 9 12 10 6 7 5 2 2 2 1 0 3 2 3 6 5 4 4 4 4 4 6 3 1 4 5 4 4 3 3 3 2 4 3 2 2 1 1 2 4 6 4 4 2 2 3 2 2 0 1 2 1 3 1 3 2 3 3 3 4 3 4 5 5 5 9 9 7 8 8 9 9 7 8 8 7 8 9 10 10
6 7 11 16 15 12 11 9 11 13 8 6 7 3 1 2 2 2 1 2 2 3 3 3 3 2 3 3 4 7 5 3 4 4 3 4 3 3 3 2 2 2 1 1 0 1 1 3 5 4 4 4 1 2 3 2 2 2 1 4 3 1 3 1 1 1 2 5 3 3 6 4 3 6 6 8 11 12 13 14 12 9 8 8 8 9 10 11
3 3 7 14 16 12 10 10 13 10 5 6 6 3 1 0 1 2 2 2 2 3 4 2 2 1 2 2 3 5 5 4 4 4 3 3 2 2 3 2 2 1 3 2 2 0 1 2 6 2 2 7 4 4 4 5 4 3 0 3 0 1 2 1 1 1 3 5 4 3 5 4 4 6 5 7 10 12 12 13 12 11 9 8 9 9 11 11
3 2 3 12 15 12 10 12 12 7 6 5 4 2 1 1 3 3 3 3 2 2 3 1 1 2 3 2 1 4 4 4 4 3 2 2 2 3 3 1 3 3 3 2 2 1 1 2 4 4 3 6 6 4 2 4 4 3 2 2 2 1 2 1 1 1 1 3 4 3 4 3 4 5 4 6 9 8 9 8 9 11 11 9 8 8 9 10
3 2 2 11 14 11 12 11 8 6 5 3 2 1 0 1 4 5 3 2 1 1 2 1 2 2 2 2 2 2 3 3 4 2 1 1 2 4 4 2 4 5 3 2 2 1 2 2 3 5 5 3 3 1 1 2 3 3 4 3 3 1 1 1 2 1 1 2 3 3 3 4 4 2 4 8 9 6 6 7 9 12 14 11 8 9 9 9
3 3 3 11 13 12 10 7 5 4 3 1 1 0 0 1 2 4 4 2 1 1 1 1 1 1 1 3 3 2 3 3 3 2 1 2 1 2 4 5 4 5 4 4 4 2 1 1 1 4 5 3 4 5 3 2 1 1 0 1 2 2 2 3 2 0 2 2 3 5 6 6 5 4 6 9 8 6 6 8 9 13 16 14 10 10 9 9
4 3 3 10 14 12 7 5 3 2 3 1 0 1 1 1 1 2 4 3 3 2 2 2 1 0 1 1 1 2 3 2 2 2 1 2 1 1 3 6 5 4 3 3 2 1 2 2 1 4 3 5 11 9 4 2 3 3 1 1 1 2 2 1 3 3 3 3 4 4 6 7 6 5 7 8 7 8 11 11 10 10 13 15 13 12 10 9
3 1 3 11 14 9 6 4 4 3 1 2 2 1 1 1 0 2 3 3 3 2 2 2 0 0 1 1 1 2 2 1 1 1 1 3 3 4 5 6 7 6 4 2 3 2 2 3 2 4 3 4 9 7 4 2 4 4 2 1 1 1 1 2 3 3 3 4 4 3 5 7 5 5 4 7 9 11 12 14 13 10 10 13 14 13 11 10
1 2 2 11 13 5 4 3 1 2 2 3 2 3 3 1 1 1 2 2 1 1 1 1 0 0 1 1 1 1 1 1 2 2 1 1 3 5 5 7 8 6 2 1 2 2 1 1 2 3 5 5 6 7 6 6 4 2 2 2 1 1 2 1 2 1 1 5 5 3 4 7 8 7 6 8 12 14 13 13 13 11 10 11 12 11 10 10
2 0 2 8 13 9 4 3 4 3 1 2 4 4 4 2 2 2 2 3 1 2 1 1 1 1 1 1 2 2 1 0 1 2 1 1 4 5 6 9 8 4 3 5 2 2 0 1 2 3 1 2 4 4 4 5 4 2 3 4 3 3 3 2 2 1 2 5 4 2 5 10 14 16 15 12 12 15 15 14 13 12 12 12 12 10 8 7
2 1 2 5 9 8 2 1 4 4 1 2 2 2 3 3 4 2 2 1 1 1 0 1 2 1 1 2 3 3 1 1 2 1 2 3 3 3 5 9 7 5 8 8 1 4 2 0 2 4 5 5 6 6 4 4 5 6 8 9 8 5 3 2 1 3 3 3 4 6 9 12 17 21 19 15 15 16 16 15 13 12 13 13 14 14 12 9
2 1 1 1 3 4 3 3 4 3 1 2 2 1 1 1 4 2 2 1 1 1 1 1 2 3 2 3 3 2 2 2 2 2 3 4 3 4 6 8 6 5 7 5 2 4 2 1 3 6 8 9 9 9 7 5 6 9 12 13 11 7 3 4 5 8 3 3 6 11 10 9 15 20 20 18 18 16 15 14 13 13 13 14 15 17 18 17
2 2 2 2 0 0 1 2 2 3 2 1 2 0 1 1 2 3 1 2 2 3 2 2 4 4 3 4 3 2 4 5 3 2 3 3 3 6 7 6 5 5 4 3 3 3 3 3 4 5 7 9 8 8 8 6 7 9 11 14 14 10 5 6 10 12 6 3 9 15 13 12 15 19 21 20 17 15 16 16 14 14 14 15 15 16 18 19
2 1 1 2 1 3 2 1 2 3 2 1 1 1 0 0 3 2 2 2 3 3 1 1 5 6 4 4 2 2 4 5 4 2 1 4 6 5 5 5 5 3 5 4 3 2 3 3 4 3 5 7 5 7 9 7 7 8 11 14 13 10 9 9 12 13 10 10 15 17 17 16 16 18 20 18 15 13 14 15 15 15 15 15 15 15 15 16
2 1 1 2 2 1 1 1 2 3 2 1 0 0 1 2 3 3 1 0 2 3 2 3 6 7 4 2 2 2 3 5 7 5 4 7 7 4 3 3 3 4 4 3 3 1 1 2 2 1 5 6 4 6 7 6 6 9 14 16 11 9 10 10 11 10 8 10 14 13 13 15 15 14 13 13 12 10 11 14 16 15 14 14 14 14 14 14
4 3 1 2 2 2 1 1 1 2 2 2 2 2 1 2 3 3 3 2 2 1 3 5 6 5 3 3 4 4 5 7 8 9 7 7 7 4 3 4 4 5 5 2 1 1 1 1 2 2 5 4 2 4 6 6 6 10 16 17 11 7 8 7 7 7 6 7 8 7 7 9 10 10 11 12 12 10 11 15 16 15 14 14 13 13 13 13
4 2 2 4 1 2 1 2 2 2 1 1 2 2 2 3 4 2 2 2 1 5 4 5 5 3 3 4 4 5 8 9 10 9 8 8 9 7 7 8 8 7 5 2 1 1 2 2 1 1 4 3 1 3 6 7 8 9 9 8 5 5 5 6 7 7 6 5 5 6 6 7 9 10 12 14 14 12 11 13 15 15 14 13 11 12 13 13
Wind_Direction
4 1 359 358 356 354 352 350 349 347 347 345 343 344 340 338 337 336 336 335 336 335 334 332 332 331 327 326 323 325 327 320 318 312 291 274 278 291 310 316 312 310 314 316 324 332 336 346 349 348 341 171 158 197 210 199 163 119 126 163 205 201 211 199 195 197 179 272 326 311 257 149 227 284 293 31 49 64 66 28 354 7 16 39 137 144 149 158
3 359 357 355 353 352 350 348 348 347 346 345 344 344 341 341 340 339 339 338 339 338 337 336 335 332 326 327 325 327 325 319 317 297 283 288 272 270 330 326 328 328 328 324 329 334 335 331 335 345 339 223 189 194 197 207 173 168 140 178 214 206 219 210 209 231 13 304 313 303 266 196 197 175 153 154 305 77 91 12 357 28 23 53 114 138 148 157
7 5 1 357 352 350 349 347 348 346 344 344 343 343 342 343 342 341 341 339 339 338 338 337 336 332 327 327 325 326 325 321 316 286 286 24 130 35 340 333 342 344 334 326 324 322 306 296 316 338 322 272 260 207 202 218 193 189 147 187 223 215 239 249 244 236 191 293 307 303 265 208 217 172 154 167 163 152 163 193 82 178 199 132 136 146 151 158
10 9 6 1 358 356 353 349 348 346 344 343 341 342 341 340 340 340 341 339 339 338 337 337 335 334 331 327 325 326 328 325 320 300 302 110 30 351 344 340 351 351 335 322 317 312 297 291 312 346 302 283 291 246 206 224 196 190 176 196 216 202 237 247 247 248 227 267 301 318 325 245 269 226 167 147 134 224 231 210 193 196 182 163 165 160 158 161
9 7 5 3 3 3 0 356 352 348 345 343 340 338 337 337 337 337 338 337 337 336 337 337 335 335 332 329 328 327 336 348 24 16 357 325 317 339 346 344 352 352 337 318 311 308 293 289 335 16 7 273 294 285 230 236 195 219 215 203 206 186 219 244 249 254 217 13 324 333 341 308 316 315 204 151 153 226 229 211 208 189 169 168 169 166 166 167
5 3 3 2 3 3 1 0 356 353 350 347 343 339 337 334 333 334 334 334 335 336 337 336 336 338 334 334 330 326 9 178 322 6 356 350 342 338 349 348 350 358 7 9 351 326 286 331 15 30 31 324 260 238 256 285 269 261 256 216 217 205 210 237 242 242 86 24 314 306 295 310 339 314 252 176 190 218 213 205 201 180 169 167 161 163 171 177
1 359 360 359 359 358 357 358 355 353 352 349 347 344 341 335 333 331 330 331 332 333 336 336 338 339 337 341 340 343 77 256 298 358 356 359 356 340 346 348 354 8 27 26 9 348 30 31 6 226 69 322 253 245 278 316 324 247 278 273 252 239 239 266 298 315 12 310 272 289 299 283 273 288 313 253 245 239 246 248 192 167 159 157 159 171 178 181
357 355 354 353 353 353 351 352 350 349 348 347 345 344 342 339 337 332 328 328 329 331 333 337 339 340 342 348 354 356 300 252 311 3 360 359 355 343 341 352 8 10 21 20 8 1 48 46 3 343 44 287 254 293 304 326 316 215 240 296 320 292 285 307 312 301 300 248 249 291 292 252 226 243 320 268 270 278 253 235 138 144 148 159 171 179 181 184
352 350 349 348 346 346 345 344 344 343 342 343 342 340 339 338 338 334 329 324 325 328 328 334 337 341 345 348 23 327 290 211 341 358 3 1 353 336 336 360 10 6 9 5 11 28 42 47 359 20 215 275 313 320 324 335 270 242 278 312 330 315 313 314 307 289 284 264 237 271 280 267 248 241 280 254 260 287 170 123 133 144 156 174 179 182 184 187
346 343 342 341 341 340 339 339 338 337 337 337 336 336 334 333 335 332 330 324 321 322 324 332 334 339 346 356 57 318 273 190 305 344 356 357 350 333 332 356 359 357 356 348 2 30 35 352 297 246 204 264 323 306 316 182 251 321 313 302 306 300 307 306 305 305 295 261 219 219 256 270 276 255 266 265 262 298 84 88 137 155 169 183 186 189 189 191
344 340 337 335 336 335 334 334 333 332 331 331 331 332 330 330 332 330 327 321 315 315 320 327 330 334 342 5 105 234 293 302 311 330 338 340 343 333 326 336 341 344 344 338 340 353 356 334 333 5 184 302 322 300 289 265 300 310 300 306 310 313 311 302 306 308 319 281 203 181 247 273 281 226 232 255 279 335 68 127 174 185 191 190 191 195 194 201
343 340 336 333 333 332 333 332 330 329 328 328 329 328 328 328 329 329 325 320 314 310 314 324 327 329 339 348 211 259 314 325 323 325 325 327 329 325 318 316 322 332 336 329 317 328 337 342 15 45 255 320 328 309 302 306 311 301 335 329 311 338 322 293 293 289 9 316 233 150 271 270 244 224 221 238 264 305 309 237 201 205 207 201 199 199 203 211
345 342 339 334 331 330 330 329 328 327 326 326 326 326 326 324 327 329 324 317 313 308 310 319 318 321 345 270 261 304 326 329 329 323 324 330 328 327 310 293 300 322 334 325 306 316 329 340 9 13 257 11 293 268 314 322 319 297 5 70 314 348 310 282 273 231 220 257 260 131 257 254 246 238 227 242 250 251 277 267 244 219 203 205 205 205 211 213
347 344 339 335 331 328 326 326 325 324 324 325 324 325 323 322 326 327 321 313 312 309 306 315 315 317 354 266 291 334 336 323 331 333 335 339 338 341 325 300 302 316 327 321 312 315 330 341 354 342 234 174 255 293 341 337 349 313 323 37 8 278 272 298 323 263 236 238 200 150 252 249 252 257 241 246 244 223 241 252 255 246 221 204 202 210 217 215
347 344 340 336 331 328 325 323 322 321 322 321 322 324 323 324 328 327 316 305 310 309 302 314 324 333 336 282 309 349 350 336 348 351 344 336 335 341 341 334 322 320 320 318 324 323 332 345 357 44 282 272 352 7 1 340 350 14 238 331 335 201 265 310 311 252 233 260 177 180 256 261 243 255 245 238 240 229 236 245 251 252 241 220 206 210 216 220
346 343 340 336 330 327 323 320 320 320 320 319 320 321 324 328 331 328 312 306 314 303 303 324 2 20 326 287 331 359 2 357 350 344 342 334 324 320 331 332 327 335 327 319 333 325 332 356 342 150 319 336 66 73 31 352 335 358 126 226 279 218 281 312 302 276 225 257 253 213 244 265 237 251 234 222 229 230 233 241 245 247 246 235 219 217 218 221
346 341 336 332 329 325 320 319 319 317 319 319 318 322 327 331 332 331 339 349 332 287 293 309 330 350 278 301 340 349 340 341 340 337 342 348 341 331 332 327 334 348 339 328 332 321 335 17 286 6 21 13 71 99 72 299 280 325 21 187 249 195 175 281 300 302 249 210 239 243 245 241 253 276 261 234 231 236 235 235 241 243 246 243 228 230 230 224
346 343 336 328 326 323 319 319 319 318 319 318 318 323 326 330 342 35 50 358 337 285 309 295 306 324 266 321 335 318 322 330 330 329 336 355 356 342 337 314 332 351 354 350 335 315 324 353 48 40 6 4 44 101 160 222 207 229 238 179 271 236 201 238 263 292 323 228 232 255 261 255 263 283 283 265 246 244 244 236 242 247 246 249 240 234 235 231
348 345 341 331 324 323 320 321 323 322 322 320 323 328 330 348 5 86 21 354 359 90 343 297 329 321 268 306 311 311 322 322 321 321 331 353 348 329 329 319 346 20 47 31 323 299 219 1 40 64 309 287 204 147 191 210 172 191 212 181 267 266 248 252 247 269 306 300 261 249 257 263 262 266 268 267 259 250 251 241 240 251 251 252 251 245 241 239
348 345 344 337 326 322 324 324 324 327 328 326 330 338 360 19 2 22 356 353 71 172 284 254 255 284 283 295 303 315 322 317 312 314 319 331 333 331 341 354 28 46 85 151 265 311 119 151 247 210 205 216 225 205 211 237 221 222 263 273 274 271 272 273 272 278 274 264 270 253 251 257 251 253 255 260 264 261 260 255 241 248 260 259 259 264 257 249
347 345 344 341 329 322 326 326 327 332 330 326 335 351 44 28 1 330 337 330 278 279 257 257 261 261 273 278 293 311 332 328 311 323 331 331 330 346 351 0 40 25 303 196 268 343 73 167 231 226 213 213 227 230 241 278 286 281 264 269 278 254 260 269 268 279 280 230 268 278 280 269 256 253 259 266 266 257 256 257 251 245 254 261 255 261 265 266
350 347 345 343 332 325 329 331 334 336 334 334 349 24 60 1 350 282 302 324 303 308 282 287 287 270 285 287 302 324 30 352 321 331 359 6 353 14 344 16 72 259 318 20 335 359 26 253 216 221 221 225 252 261 269 271 271 282 281 285 282 255 269 283 270 272 302 264 276 303 312 284 269 257 260 268 258 248 245 243 245 242 251 266 256 254 267 278
354 351 349 346 335 330 335 339 346 354 357 359 9 25 3 356 358 253 222 348 302 316 341 339 354 329 334 358 356 358 22 9 321 317 350 15 359 31 91 36 60 310 8 48 195 109 27 255 226 235 230 235 278 300 318 302 280 261 277 290 282 295 43 282 289 300 294 248 253 292 302 283 278 268 258 256 246 252 259 255 258 251 249 260 258 254 259 267
359 359 355 351 344 339 343 348 8 17 6 4 27 29 10 1 7 305 223 63 309 304 333 14 19 355 342 339 340 355 5 325 293 305 337 20 359 12 74 31 46 24 16 5 191 141 261 273 278 298 325 332 273 310 335 320 312 257 224 224 256 287 242 230 283 309 313 289 251 306 312 285 273 267 262 260 252 255 264 274 283 276 264 266 272 269 248 245
4 5 2 359 355 350 349 1 17 7 358 13 39 15 5 4 358 338 10 64 350 308 321 5 23 2 334 330 329 340 6 318 288 285 313 352 357 7 5 325 77 37 357 13 100 107 278 287 299 285 292 278 252 288 274 189 300 299 234 210 215 245 260 266 295 318 333 315 323 16 334 287 299 287 275 288 285 275 281 285 283 288 292 288 289 287 270 252
4 6 8 6 359 357 2 20 358 352 359 35 16 356 357 3 351 342 53 64 7 320 333 350 12 349 337 338 330 2 67 334 315 314 316 339 16 56 27 334 31 26 353 14 47 130 318 328 351 2 342 326 257 276 273 149 152 288 246 213 203 212 243 263 281 310 298 269 297 31 71 273 311 308 281 302 308 294 301 300 292 299 304 299 294 292 289 284
5 3 9 10 2 7 22 337 347 357 25 357 346 345 343 345 344 337 62 48 8 336 333 326 338 341 330 321 328 25 96 305 325 346 356 4 359 40 59 330 359 4 339 25 15 84 6 352 6 25 41 39 345 286 342 37 117 240 272 280 217 182 195 224 213 209 231 271 299 313 14 277 287 268 251 263 288 298 303 301 303 304 294 289 284 281 282 285
7 359 4 9 6 14 26 7 357 9 346 318 323 330 326 327 331 53 79 66 344 337 312 299 308 305 312 324 344 57 214 294 4 344 343 21 9 27 41 303 142 330 323 93 123 249 62 4 8 19 35 38 236 226 322 0 99 238 294 320 290 167 151 53 67 246 273 355 296 289 1 289 277 270 242 236 248 271 278 279 285 287 281 276 273 274 275 277
9 359 358 4 9 21 24 23 10 356 331 319 316 317 318 322 355 61 72 84 319 326 208 304 337 315 333 353 355 22 319 335 46 303 334 32 23 39 52 243 139 113 327 108 184 257 240 171 144 98 69 231 226 236 257 66 262 276 305 314 309 79 70 41 55 12 340 312 257 263 94 257 272 260 229 242 234 247 256 261 266 266 268 270 269 272 276 280
8 0 354 2 20 23 10 13 8 353 333 330 321 315 320 329 49 61 44 42 307 314 265 340 346 316 355 8 341 346 6 355 329 328 349 13 353 17 59 316 87 87 350 8 275 264 284 312 164 181 224 207 212 242 217 183 227 296 328 326 343 16 34 43 36 67 33 275 254 205 160 207 278 232 177 213 218 216 233 255 267 269 269 270 271 272 273 279
3 0 357 7 21 16 5 355 358 356 342 340 333 332 345 0 66 82 55 305 290 320 331 345 331 330 357 14 347 336 2 349 337 3 2 348 356 5 24 19 30 50 9 358 328 294 324 9 197 264 284 160 10 295 240 193 190 44 17 21 15 344 6 27 1 53 201 261 264 182 172 193 251 251 201 267 294 297 262 265 274 278 279 278 278 277 272 270
358 3 8 19 27 26 21 354 349 356 349 344 345 358 48 44 34 74 293 317 335 319 324 313 311 334 340 4 13 340 347 349 345 17 358 351 10 356 17 34 12 20 10 352 337 331 342 340 280 315 336 49 19 318 309 345 43 92 67 57 68 337 358 357 301 174 226 257 279 198 187 199 246 262 265 272 282 278 264 265 267 268 273 275 277 279 276 271
0 13 24 33 36 35 30 7 354 359 348 344 356 31 80 72 36 2 306 330 313 284 297 291 300 326 342 12 8 339 352 0 347 2 346 3 32 1 0 32 53 67 29 339 345 355 351 317 347 7 343 8 62 288 325 337 359 73 124 118 132 179 300 256 245 255 262 265 275 252 225 242 265 268 250 245 259 262 259 263 265 266 270 273 277 284 289 287
7 23 37 46 43 39 32 16 9 5 353 357 28 54 64 75 174 346 353 286 252 303 314 299 306 338 17 33 349 342 11 345 344 4 356 10 32 10 3 11 30 68 64 11 1 22 25 321 356 28 308 333 39 196 177 282 335 346 158 129 136 197 203 227 218 221 258 282 292 271 205 218 238 259 237 233 258 270 263 261 267 274 276 278 282 286 290 290
7 24 41 49 44 38 26 18 16 8 1 20 63 59 67 98 255 341 350 270 276 324 314 321 5 20 10 348 336 4 34 318 341 8 6 12 23 1 6 359 3 31 49 22 340 28 57 276 279 286 279 7 18 291 198 112 332 313 107 98 83 257 194 232 205 184 218 299 305 246 231 228 239 288 300 290 291 292 286 287 294 289 285 294 295 287 284 283
11 29 40 37 32 26 17 18 14 3 7 57 72 48 87 168 227 173 245 294 308 319 321 348 35 39 349 327 335 349 5 348 353 7 0 6 4 346 7 352 348 11 79 84 347 349 36 284 290 328 324 24 54 306 306 106 141 334 40 119 237 167 115 226 255 201 214 271 253 211 250 280 293 291 296 317 322 316 311 310 305 294 299 311 303 294 292 287
21 37 37 27 21 13 8 11 1 358 16 79 80 72 194 196 208 209 281 318 306 328 19 19 358 21 353 330 325 334 348 2 5 16 357 355 354 345 3 1 356 357 227 111 74 287 69 284 297 354 326 295 311 324 339 43 81 76 6 263 256 78 94 142 273 294 276 271 252 204 239 267 287 277 310 346 326 311 305 303 303 308 320 315 302 302 299 294
36 39 30 19 11 2 1 356 350 360 48 71 70 99 177 269 282 270 300 320 318 6 56 48 308 21 30 348 306 318 350 3 355 13 2 349 352 355 14 4 11 358 287 359 38 297 80 306 294 336 310 294 327 41 15 356 24 81 244 278 16 56 320 17 110 252 270 272 280 239 234 233 222 253 300 314 295 295 298 304 314 322 325 312 304 310 311 312
60 59 14 5 3 1 353 344 348 23 71 62 64 102 207 277 279 275 293 326 347 44 46 358 326 17 13 29 314 310 357 11 341 354 23 3 350 6 46 27 351 344 296 354 42 263 59 46 287 306 338 314 338 33 17 329 347 23 16 6 54 157 234 273 259 257 260 270 284 262 246 259 240 241 288 290 288 307 315 320 325 322 323 316 305 312 319 325
53 80 338 351 1 354 339 341 2 50 70 65 116 142 13 247 280 287 298 338 28 68 23 348 1 4 334 359 1 325 355 356 335 345 2 336 333 346 17 31 344 336 331 18 48 353 25 63 269 300 342 357 345 356 326 325 345 2 12 3 338 341 71 309 272 269 309 291 292 285 274 273 253 252 335 309 300 316 328 334 330 322 323 319 311 317 322 327
44 72 323 348 359 345 343 10 32 58 77 50 71 42 311 207 289 307 309 340 44 23 14 29 349 353 329 343 352 348 344 334 343 10 322 328 358 354 12 25 352 331 352 21 30 36 29 57 272 305 341 350 283 262 261 270 164 112 30 319 322 345 14 331 300 353 351 303 289 299 293 281 272 291 315 304 297 305 316 324 322 316 315 314 313 317 318 322
56 79 314 349 355 347 14 57 6 46 106 98 305 201 292 327 11 318 318 356 44 14 10 48 15 319 44 340 306 348 351 322 349 19 310 305 312 266 336 360 358 345 6 10 325 278 126 94 332 291 286 281 280 285 297 252 173 129 112 140 40 24 54 358 310 328 337 298 287 285 274 277 272 255 278 294 307 317 315 311 306 301 304 307 309 312 313 315
81 142 311 356 354 351 51 60 340 15 76 270 246 201 290 343 27 328 328 358 31 20 18 35 349 349 31 337 302 343 349 308 325 346 289 301 288 262 303 351 5 0 11 9 314 315 66 61 354 302 293 291 295 314 1 31 107 91 17 7 80 31 96 160 259 297 310 286 284 271 262 283 277 227 253 305 313 312 308 304 301 297 295 299 303 308 312 311
105 216 291 7 7 19 88 90 18 21 324 318 1 348 327 276 191 337 332 319 341 61 61 8 288 234 256 281 322 301 295 327 324 309 303 306 286 288 324 4 7 358 2 302 310 343 348 18 42 348 334 343 341 346 352 353 32 75 299 290 126 345 351 312 260 292 266 253 254 255 274 284 281 275 295 315 308 301 297 294 297 298 295 296 299 303 306 305
41 349 281 5 27 54 104 162 143 121 347 14 22 355 352 333 259 226 240 278 254 155 113 322 278 234 260 352 10 324 301 139 272 301 309 260 285 300 343 359 351 333 287 277 262 118 177 232 109 82 349 299 313 312 305 320 334 330 296 291 284 300 301 287 305 318 251 258 257 241 265 280 288 294 300 303 298 295 293 293 296 299 301 304 304 300 291 288
81 52 304 342 20 49 72 160 110 111 141 76 28 351 31 351 298 244 173 212 234 176 120 312 312 334 338 12 0 323 310 218 242 300 309 283 287 288 328 334 322 294 295 294 244 117 97 266 164 172 192 221 252 257 258 307 313 301 298 293 287 280 236 212 270 247 249 314 309 252 250 273 289 293 297 300 296 291 293 300 306 309 310 310 309 304 296 283
92 139 130 349 350 20 17 5 58 93 157 127 131 308 29 333 306 334 108 143 305 338 19 13 21 25 352 340 339 309 319 316 283 291 271 256 263 283 303 312 301 301 319 325 55 92 78 290 223 206 220 238 254 268 288 314 296 282 287 286 280 271 216 185 236 248 259 352 295 268 261 268 280 285 289 291 291 294 302 309 310 309 307 306 305 305 303 300
72 165 153 120 156 37 23 340 86 90 44 93 134 141 357 347 356 20 16 342 358 7 12 20 27 29 356 337 338 328 338 331 294 265 267 282 324 322 318 313 301 321 5 13 14 82 113 261 238 207 236 253 261 277 285 283 268 266 272 274 277 278 246 214 243 251 241 224 259 273 281 276 273 278 281 284 291 302 308 307 304 302 300 300 300 301 302 302
66 109 327 31 112 195 213 232 116 83 36 9 115 87 240 12 25 13 326 352 0 346 1 44 9 1 349 337 338 335 342 328 297 272 325 337 338 335 326 317 311 351 48 28 337 93 130 259 242 205 264 279 275 270 266 263 266 270 269 266 270 277 261 239 248 254 241 233 248 264 276 276 271 272 277 286 297 303 303 302 304 303 300 297 297 296 295 295
70 114 281 31 62 236 263 27 78 68 18 307 99 347 227 79 30 342 305 57 308 304 3 35 353 340 327 325 342 317 306 309 300 302 335 335 328 330 318 288 286 331 358 2 325 309 193 274 288 276 292 300 288 262 260 262 267 278 281 278 276 276 269 253 250 253 244 242 251 258 268 272 271 275 285 297 305 309 311 312 313 309 302 297 294 292 290 287
99 111 142 97 49 327 333 11 69 77 20 359 26 337 332 40 10 314 286 249 204 145 47 9 339 330 323 333 347 329 318 317 302 297 306 300 286 284 281 256 266 303 305 286 304 319 246 278 341 310 286 297 307 286 293 299 290 282 280 282 279 262 253 248 239 228 218 241 265 273 266 268 282 303 314 312 315 327 329 322 318 313 309 304 298 294 293 290
108 97 92 104 75 314 8 24 24 79 76 21 20 340 338 5 354 343 319 309 83 96 51 352 332 329 327 328 335 325 316 305 288 283 280 267 263 257 247 249 256 261 263 252 246 228 213 248 303 287 280 298 343 329 324 321 307 288 268 263 268 249 246 263 268 252 220 226 270 279 272 289 311 321 322 320 323 332 331 321 313 313 321 324 320 317 313 310